Вернуться в каталог

STARLINK-36583

АктивенСвязьSSO
NORAD 67545·PAYLOAD·🇺🇸 United States

Запущен Jan 22, 2026 с Vandenberg Space Force Base

Loading…

Ближайшие Пролёты (ближайшие 24 часа)

TLE

СвежийSource: CelesTrak SupGP

Эпоха: Sep 14, 2026, 21:06 UTC

1 67545C 26014P   26257.87965278 -.00032667  00000+0 -10144-2 0  2578
2 67545  97.2847 143.3668 0001521  92.5867 126.7638 15.33443404    18

Отслеживайте STARLINK-36583 в реальном времени с AllMySat

Download on the App Store